Phoenix Deer Valley, AZ

5:40 AM MST on May 22, 2018 (GMT -0700)
Phoenix-Deer Valley Municipal

Weather History for KDVT - June, 2013

Change the Weather History Date:

Monday, June 24, 2013

  Actual Average Record
Temperature  
Mean Temperature 87 °F -  
Max Temperature 99 °F 99 °F 111 °F (2017)
Min Temperature 75 °F 76 °F 71 °F (2003)
Cooling Degree Days 22    
Growing Degree Days 37 (Base 50)    
Moisture  
Dew Point 29 °F    
Average Humidity 12    
Maximum Humidity 19    
Minimum Humidity 8    
Precipitation  
Precipitation 0.00 in - - ()
Sea Level Pressure  
Sea Level Pressure 29.70 in    
Wind  
Wind Speed 5 mph (SSW)    
Max Wind Speed 15 mph    
Max Gust Speed 20 mph    
Visibility 10 miles    
Events      
Averages and records for this station are not official NWS values.
T = Trace of Precipitation, MM = Missing Value Source: NWS Daily Summary

Daily Weather History Graph

Daily Weather History Graph

Search for Another Location

Airport or City:

Astronomy

Jun. 24, 2013 Rise Set
Actual Time 5:19 AM MST 7:42 PM MST
Civil Twilight 4:50 AM MST 8:11 PM MST
Nautical Twilight 4:14 AM MST 8:47 PM MST
Astronomical Twilight 3:35 AM MST 9:26 PM MST
Moon 8:54 PM MST (6/24) 6:46 AM MST (6/24)
Length of Visible Light 15h 21m
Length of Day
14h 23m
Full, 97% of the Moon is Illuminated
Jun 24
Full
Jun 29
Last Quarter
Jul 8
New
Jul 15
First Quarter
Jul 22
Full

Hourly Weather History & Observations

Time (MST) Temp. Dew Point Humidity Pressure Visibility Wind Dir Wind Speed Gust Speed Precip Events Conditions
12:53 AM 82.9 °F 24.1 °F 12% 29.65 in 10.0 mi Calm Calm - N/A   Clear
1:53 AM 80.1 °F 23.0 °F 12% 29.65 in 10.0 mi Calm Calm - N/A   Clear
2:53 AM 78.1 °F 24.1 °F 14% 29.67 in 10.0 mi Calm Calm - N/A   Clear
3:53 AM 75.9 °F 25.0 °F 15% 29.68 in 10.0 mi Calm Calm - N/A   Clear
4:53 AM 75.0 °F 25.0 °F 16% 29.69 in 10.0 mi East 6.9 mph - N/A   Clear
5:53 AM 77.0 °F 27.0 °F 16% 29.71 in 10.0 mi East 9.2 mph - N/A   Clear
6:53 AM 79.0 °F 28.0 °F 15% 29.72 in 10.0 mi East 6.9 mph - N/A   Clear
7:53 AM 84.0 °F 27.0 °F 13% 29.75 in 10.0 mi SE 10.4 mph - N/A   Clear
8:53 AM 88.0 °F 27.0 °F 11% 29.75 in 10.0 mi Variable 5.8 mph - N/A   Clear
9:53 AM 89.1 °F 25.0 °F 10% 29.76 in 10.0 mi East 9.2 mph - N/A   Clear
10:53 AM 91.0 °F 27.0 °F 10% 29.75 in 10.0 mi SE 8.1 mph - N/A   Clear
11:53 AM 91.9 °F 27.0 °F 10% 29.75 in 10.0 mi Calm Calm - N/A   Clear
12:53 PM 95.0 °F 26.1 °F 9% 29.73 in 10.0 mi Variable 5.8 mph 16.1 mph N/A   Clear
1:53 PM 96.1 °F 25.0 °F 8% 29.71 in 10.0 mi WSW 10.4 mph 17.3 mph N/A   Clear
2:53 PM 97.0 °F 26.1 °F 8% 29.70 in 10.0 mi SW 15.0 mph 19.6 mph N/A   Clear
3:53 PM 97.0 °F 27.0 °F 8% 29.69 in 10.0 mi South 12.7 mph 18.4 mph N/A   Clear
4:53 PM 99.0 °F 30.0 °F 9% 29.67 in 10.0 mi SSW 10.4 mph 17.3 mph N/A   Clear
5:53 PM 96.1 °F 30.0 °F 10% 29.67 in 10.0 mi WSW 12.7 mph 19.6 mph N/A   Clear
6:53 PM 95.0 °F 33.1 °F 11% 29.67 in 10.0 mi West 12.7 mph - N/A   Clear
7:53 PM 93.0 °F 36.0 °F 13% 29.68 in 10.0 mi WSW 9.2 mph - N/A   Clear
8:53 PM 91.0 °F 37.0 °F 15% 29.69 in 10.0 mi WNW 5.8 mph - N/A   Clear
9:53 PM 89.1 °F 33.1 °F 14% 29.71 in 10.0 mi West 5.8 mph - N/A   Clear
10:53 PM 87.1 °F 34.0 °F 15% 29.72 in 10.0 mi Calm Calm - N/A   Clear
11:53 PM 84.9 °F 37.9 °F 19% 29.73 in 10.0 mi SW 4.6 mph - N/A   Clear